| time (UTC) | temp F | wind direction | speed MPH | gust MPH | rain 1hr in | rain 24hr in | rain mn in | humidity % | barometer mb |
| 20260901205328 | 68 | 360 | 3.0 | 20.0 | 0.00 | 0.00 | 0.00 | 80 | 1022.3 |
| 20260901204822 | 68 | 328 | 6.0 | 20.0 | 0.00 | 0.00 | 0.00 | 80 | 1022.1 |
| 20260901204318 | 68 | 64 | 9.0 | 20.0 | 0.00 | 0.00 | 0.00 | 80 | 1022.1 |
| 20260901203820 | 68 | 273 | 9.0 | 22.0 | 0.00 | 0.00 | 0.00 | 80 | 1022.0 |
| 20260901203316 | 68 | 37 | 11.0 | 22.0 | 0.00 | 0.00 | 0.00 | 80 | 1021.8 |
| 20260901202818 | 68 | 343 | 10.0 | 24.0 | 0.00 | 0.00 | 0.00 | 80 | 1021.8 |
| 20260901202325 | 68 | 348 | 10.0 | 20.0 | 0.00 | 0.00 | 0.00 | 80 | 1021.9 |
| 20260901201840 | 68 | 338 | 10.0 | 21.0 | 0.00 | 0.00 | 0.00 | 79 | 1021.8 |
| 20260901201323 | 68 | 360 | 9.0 | 19.0 | 0.00 | 0.00 | 0.00 | 79 | 1021.7 |
| 20260901200820 | 68 | 339 | 10.0 | 19.0 | 0.00 | 0.00 | 0.00 | 79 | 1021.6 |
| 20260901200344 | 68 | 355 | 7.0 | 22.0 | 0.00 | 0.00 | 0.00 | 79 | 1021.6 |
| 20260901195817 | 68 | 327 | 9.0 | 22.0 | 0.00 | 0.00 | 0.00 | 78 | 1021.7 |
| 20260901195340 | 68 | 360 | 10.0 | 18.0 | 0.00 | 0.00 | 0.00 | 78 | 1021.6 |
| 20260901194815 | 68 | 306 | 8.0 | 18.0 | 0.00 | 0.00 | 0.00 | 78 | 1021.6 |
| 20260901194318 | 68 | 355 | 9.0 | 21.0 | 0.00 | 0.00 | 0.00 | 78 | 1021.6 |
| 20260901193815 | 69 | 350 | 12.0 | 21.0 | 0.00 | 0.00 | 0.00 | 78 | 1021.5 |
| 20260901193336 | 69 | 56 | 8.0 | 16.0 | 0.00 | 0.00 | 0.00 | 77 | 1021.4 |
| 20260901192813 | 69 | 360 | 7.0 | 20.0 | 0.00 | 0.00 | 0.00 | 77 | 1021.4 |
| 20260901192316 | 69 | 9 | 10.0 | 19.0 | 0.00 | 0.00 | 0.00 | 77 | 1021.4 |
| 20260901191832 | 69 | 346 | 11.0 | 20.0 | 0.00 | 0.00 | 0.00 | 77 | 1021.4 |
| 20260901191334 | 69 | 42 | 9.0 | 18.0 | 0.00 | 0.00 | 0.00 | 77 | 1021.3 |
| 20260901190830 | 69 | 360 | 12.0 | 19.0 | 0.00 | 0.00 | 0.00 | 77 | 1021.4 |
| 20260901190325 | 69 | 339 | 9.0 | 19.0 | 0.00 | 0.00 | 0.00 | 77 | 1021.5 |
| 20260901185842 | 69 | 69 | 7.0 | 20.0 | 0.00 | 0.00 | 0.00 | 77 | 1021.4 |
| 20260901185325 | 69 | 348 | 9.0 | 20.0 | 0.00 | 0.00 | 0.00 | 76 | 1021.3 |
| 20260901184819 | 70 | 49 | 11.0 | 22.0 | 0.00 | 0.00 | 0.00 | 76 | 1021.4 |
| 20260901184322 | 70 | 348 | 13.0 | 22.0 | 0.00 | 0.00 | 0.00 | 76 | 1021.3 |
| 20260901183819 | 70 | 42 | 10.0 | 23.0 | 0.00 | 0.00 | 0.00 | 76 | 1021.4 |
| 20260901183316 | 70 | 360 | 14.0 | 23.0 | 0.00 | 0.00 | 0.00 | 75 | 1021.4 |
| 20260901182819 | 70 | 333 | 9.0 | 21.0 | 0.00 | 0.00 | 0.00 | 75 | 1021.4 |
| 20260901182314 | 71 | 340 | 12.0 | 21.0 | 0.00 | 0.00 | 0.00 | 75 | 1021.4 |
| 20260901181817 | 71 | 329 | 10.0 | 19.0 | 0.00 | 0.00 | 0.00 | 74 | 1021.4 |
| 20260901181337 | 71 | 339 | 9.0 | 19.0 | 0.00 | 0.00 | 0.00 | 74 | 1021.4 |
| 20260901180827 | 71 | 330 | 10.0 | 20.0 | 0.00 | 0.00 | 0.00 | 74 | 1021.2 |
| 20260901180324 | 71 | 42 | 11.0 | 20.0 | 0.00 | 0.00 | 0.00 | 74 | 1021.4 |
| 20260901175826 | 72 | 360 | 9.0 | 20.0 | 0.00 | 0.00 | 0.00 | 74 | 1021.5 |
| 20260901175318 | 72 | 360 | 9.0 | 23.0 | 0.00 | 0.00 | 0.00 | 74 | 1021.4 |
| 20260901174842 | 72 | 326 | 17.0 | 23.0 | 0.00 | 0.00 | 0.00 | 72 | 1021.4 |
| 20260901174316 | 72 | 325 | 9.0 | 25.0 | 0.00 | 0.00 | 0.00 | 72 | 1021.5 |
| 20260901173820 | 73 | 46 | 9.0 | 25.0 | 0.00 | 0.00 | 0.00 | 72 | 1021.4 |
| 20260901173316 | 73 | 40 | 9.0 | 19.0 | 0.00 | 0.00 | 0.00 | 71 | 1021.2 |
| 20260901172836 | 73 | 57 | 9.0 | 19.0 | 0.00 | 0.00 | 0.00 | 70 | 1021.2 |
| 20260901172333 | 73 | 86 | 8.0 | 19.0 | 0.00 | 0.00 | 0.00 | 70 | 1021.2 |
| 20260901171824 | 73 | 65 | 7.0 | 19.0 | 0.00 | 0.00 | 0.00 | 70 | 1021.1 |
| 20260901171327 | 73 | 42 | 7.0 | 25.0 | 0.00 | 0.00 | 0.00 | 70 | 1021.1 |
| 20260901170823 | 73 | 40 | 9.0 | 25.0 | 0.00 | 0.00 | 0.00 | 70 | 1021.1 |
| 20260901170326 | 73 | 360 | 13.0 | 21.0 | 0.00 | 0.00 | 0.00 | 70 | 1021.1 |
| 20260901165822 | 73 | 337 | 10.0 | 20.0 | 0.00 | 0.00 | 0.00 | 70 | 1021.1 |
| 20260901165315 | 73 | 84 | 12.0 | 20.0 | 0.00 | 0.00 | 0.00 | 70 | 1021.2 |
| 20260901164816 | 73 | 338 | 11.0 | 20.0 | 0.00 | 0.00 | 0.00 | 70 | 1021.2 |
| 20260901164339 | 73 | 360 | 9.0 | 20.0 | 0.00 | 0.00 | 0.00 | 69 | 1021.3 |
| 20260901163832 | 73 | 45 | 10.0 | 20.0 | 0.00 | 0.00 | 0.00 | 69 | 1021.2 |
| 20260901163335 | 74 | 360 | 9.0 | 18.0 | 0.00 | 0.00 | 0.00 | 68 | 1021.2 |
| 20260901162831 | 74 | 34 | 11.0 | 18.0 | 0.00 | 0.00 | 0.00 | 66 | 1021.1 |
| 20260901162354 | 75 | 360 | 10.0 | 18.0 | 0.00 | 0.00 | 0.00 | 65 | 1021.1 |
| 20260901161848 | 75 | 317 | 7.0 | 15.0 | 0.00 | 0.00 | 0.00 | 65 | 1021.1 |
| 20260901161351 | 75 | 42 | 10.0 | 15.0 | 0.00 | 0.00 | 0.00 | 63 | 1021.0 |
| 20260901160832 | 75 | 45 | 8.0 | 17.0 | 0.00 | 0.00 | 0.00 | 64 | 1021.1 |
| 20260901160328 | 75 | 324 | 10.0 | 21.0 | 0.00 | 0.00 | 0.00 | 64 | 1021.1 |
| 20260901155822 | 75 | 319 | 10.0 | 23.0 | 0.00 | 0.00 | 0.00 | 63 | 1021.0 |
| 20260901155325 | 75 | 360 | 10.0 | 20.0 | 0.00 | 0.00 | 0.00 | 65 | 1021.1 |
| 20260901154821 | 75 | 331 | 11.0 | 20.0 | 0.00 | 0.00 | 0.00 | 66 | 1021.0 |
| 20260901154324 | 75 | 69 | 8.0 | 18.0 | 0.00 | 0.00 | 0.00 | 66 | 1021.2 |
| 20260901153820 | 75 | 360 | 9.0 | 18.0 | 0.00 | 0.00 | 0.00 | 67 | 1021.1 |
| 20260901153343 | 76 | 318 | 6.0 | 19.0 | 0.00 | 0.00 | 0.00 | 67 | 1021.1 |
| 20260901152819 | 75 | 360 | 10.0 | 19.0 | 0.00 | 0.00 | 0.00 | 67 | 1021.0 |
| 20260901152314 | 75 | 360 | 11.0 | 18.0 | 0.00 | 0.00 | 0.00 | 67 | 1021.0 |
| 20260901151838 | 76 | 38 | 9.0 | 22.0 | 0.00 | 0.00 | 0.00 | 67 | 1021.0 |
| 20260901151322 | 76 | 56 | 12.0 | 22.0 | 0.00 | 0.00 | 0.00 | 66 | 1021.0 |
| 20260901150818 | 76 | 355 | 6.0 | 22.0 | 0.00 | 0.00 | 0.00 | 67 | 1020.9 |
| 20260901150336 | 76 | 339 | 11.0 | 22.0 | 0.00 | 0.00 | 0.00 | 66 | 1020.9 |
| 20260901145815 | 76 | 46 | 10.0 | 18.0 | 0.00 | 0.00 | 0.00 | 66 | 1020.9 |
| 20260901145327 | 76 | 311 | 10.0 | 18.0 | 0.00 | 0.00 | 0.00 | 65 | 1021.0 |
| 20260901144828 | 77 | 360 | 5.0 | 17.0 | 0.00 | 0.00 | 0.00 | 66 | 1021.0 |
| 20260901144353 | 76 | 78 | 6.0 | 17.0 | 0.00 | 0.00 | 0.00 | 66 | 1021.0 |
| 20260901143828 | 76 | 316 | 9.0 | 16.0 | 0.00 | 0.00 | 0.00 | 65 | 1021.0 |
| 20260901143325 | 76 | 70 | 9.0 | 18.0 | 0.00 | 0.00 | 0.00 | 65 | 1020.8 |
| 20260901142829 | 76 | 360 | 10.0 | 19.0 | 0.00 | 0.00 | 0.00 | 66 | 1021.0 |
| 20260901142324 | 76 | 355 | 9.0 | 19.0 | 0.00 | 0.00 | 0.00 | 65 | 1021.0 |
| 20260901141819 | 76 | 329 | 7.0 | 15.0 | 0.00 | 0.00 | 0.00 | 66 | 1021.0 |
| 20260901141320 | 76 | 346 | 9.0 | 18.0 | 0.00 | 0.00 | 0.00 | 66 | 1021.1 |
| 20260901140831 | 76 | 338 | 7.0 | 16.0 | 0.00 | 0.00 | 0.00 | 66 | 1021.1 |
| 20260901140334 | 76 | 40 | 10.0 | 17.0 | 0.00 | 0.00 | 0.00 | 66 | 1021.2 |
| 20260901135828 | 76 | 328 | 7.0 | 18.0 | 0.00 | 0.00 | 0.00 | 66 | 1021.2 |
| 20260901135331 | 76 | 91 | 9.0 | 19.0 | 0.00 | 0.00 | 0.00 | 66 | 1021.3 |
| 20260901134826 | 76 | 360 | 9.0 | 21.0 | 0.00 | 0.00 | 0.00 | 66 | 1021.2 |
| 20260901134329 | 76 | 51 | 11.0 | 20.0 | 0.00 | 0.00 | 0.00 | 65 | 1021.2 |
| 20260901133824 | 76 | 360 | 9.0 | 22.0 | 0.00 | 0.00 | 0.00 | 67 | 1021.3 |
| 20260901133328 | 75 | 355 | 11.0 | 22.0 | 0.00 | 0.00 | 0.00 | 66 | 1021.3 |
| 20260901132824 | 75 | 321 | 10.0 | 21.0 | 0.00 | 0.00 | 0.00 | 67 | 1021.4 |
| 20260901132319 | 75 | 360 | 12.0 | 20.0 | 0.00 | 0.00 | 0.00 | 66 | 1021.4 |
| 20260901131822 | 75 | 355 | 8.0 | 16.0 | 0.00 | 0.00 | 0.00 | 66 | 1021.4 |
| 20260901131316 | 75 | 69 | 9.0 | 18.0 | 0.00 | 0.00 | 0.00 | 67 | 1021.5 |
| 20260901130816 | 75 | 293 | 9.0 | 18.0 | 0.00 | 0.00 | 0.00 | 66 | 1021.6 |
| 20260901130332 | 75 | 319 | 9.0 | 18.0 | 0.00 | 0.00 | 0.00 | 67 | 1021.6 |
| 20260901125832 | 75 | 45 | 7.0 | 22.0 | 0.00 | 0.00 | 0.00 | 67 | 1021.6 |
| 20260901125329 | 75 | 342 | 9.0 | 22.0 | 0.00 | 0.00 | 0.00 | 67 | 1021.8 |
| 20260901124831 | 75 | 360 | 8.0 | 21.0 | 0.00 | 0.00 | 0.00 | 67 | 1021.7 |
| 20260901124324 | 75 | 360 | 11.0 | 21.0 | 0.00 | 0.00 | 0.00 | 67 | 1021.7 |
| 20260901123819 | 75 | 360 | 5.0 | 19.0 | 0.00 | 0.00 | 0.00 | 67 | 1021.7 |
| 20260901123316 | 74 | 333 | 10.0 | 20.0 | 0.00 | 0.00 | 0.00 | 67 | 1021.7 |
| 20260901122819 | 74 | 360 | 11.0 | 20.0 | 0.00 | 0.00 | 0.00 | 67 | 1021.7 |
| 20260901122345 | 74 | 342 | 10.0 | 20.0 | 0.00 | 0.00 | 0.00 | 67 | 1021.7 |
| 20260901121834 | 74 | 9 | 12.0 | 20.0 | 0.00 | 0.00 | 0.00 | 66 | 1021.7 |
| 20260901121337 | 74 | 360 | 11.0 | 24.0 | 0.00 | 0.00 | 0.00 | 67 | 1021.6 |
| 20260901120828 | 74 | 51 | 11.0 | 24.0 | 0.00 | 0.00 | 0.00 | 67 | 1021.7 |
| 20260901120350 | 74 | 70 | 9.0 | 22.0 | 0.00 | 0.00 | 0.00 | 67 | 1021.6 |
| 20260901115832 | 73 | 346 | 11.0 | 21.0 | 0.00 | 0.00 | 0.00 | 67 | 1021.6 |
| 20260901115329 | 74 | 44 | 11.0 | 24.0 | 0.00 | 0.00 | 0.00 | 67 | 1021.6 |
| 20260901114824 | 74 | 44 | 10.0 | 24.0 | 0.00 | 0.00 | 0.00 | 67 | 1021.7 |
| 20260901114322 | 73 | 360 | 11.0 | 23.0 | 0.00 | 0.00 | 0.00 | 68 | 1021.6 |
| 20260901113838 | 73 | 328 | 11.0 | 24.0 | 0.00 | 0.00 | 0.00 | 68 | 1021.7 |
| 20260901113315 | 73 | 360 | 13.0 | 24.0 | 0.00 | 0.00 | 0.00 | 69 | 1021.8 |
| 20260901112828 | 73 | 360 | 14.0 | 24.0 | 0.00 | 0.00 | 0.00 | 69 | 1021.6 |
| 20260901112347 | 73 | 54 | 9.0 | 22.0 | 0.00 | 0.00 | 0.00 | 69 | 1021.7 |
| 20260901111821 | 73 | 360 | 11.0 | 24.0 | 0.00 | 0.00 | 0.00 | 69 | 1021.8 |
| 20260901111325 | 73 | 360 | 14.0 | 24.0 | 0.00 | 0.00 | 0.00 | 69 | 1021.8 |
| 20260901110819 | 73 | 360 | 13.0 | 22.0 | 0.00 | 0.00 | 0.00 | 69 | 1021.8 |
| 20260901110321 | 73 | 42 | 11.0 | 18.0 | 0.00 | 0.00 | 0.00 | 69 | 1022.1 |
| 20260901105844 | 72 | 324 | 9.0 | 20.0 | 0.00 | 0.00 | 0.00 | 71 | 1022.1 |
| 20260901105315 | 72 | 329 | 11.0 | 22.0 | 0.00 | 0.00 | 0.00 | 72 | 1022.3 |
| 20260901104836 | 71 | 83 | 11.0 | 24.0 | 0.00 | 0.00 | 0.00 | 72 | 1022.1 |
| 20260901104322 | 71 | 360 | 11.0 | 24.0 | 0.00 | 0.00 | 0.00 | 72 | 1022.2 |
| 20260901103818 | 71 | 327 | 10.0 | 23.0 | 0.00 | 0.00 | 0.00 | 72 | 1022.2 |
| 20260901103320 | 71 | 334 | 16.0 | 23.0 | 0.00 | 0.00 | 0.00 | 72 | 1021.9 |
| 20260901102816 | 72 | 316 | 12.0 | 23.0 | 0.00 | 0.00 | 0.00 | 72 | 1022.0 |
| 20260901102319 | 71 | 339 | 14.0 | 22.0 | 0.00 | 0.00 | 0.00 | 72 | 1022.0 |
| 20260901101835 | 71 | 344 | 7.0 | 19.0 | 0.00 | 0.00 | 0.00 | 73 | 1022.1 |
| 20260901101338 | 71 | 360 | 9.0 | 21.0 | 0.00 | 0.00 | 0.00 | 73 | 1022.2 |
| 20260901100838 | 71 | 295 | 13.0 | 21.0 | 0.00 | 0.00 | 0.00 | 73 | 1022.1 |
| 20260901100352 | 71 | 360 | 10.0 | 18.0 | 0.00 | 0.00 | 0.00 | 74 | 1022.3 |
| 20260901095832 | 70 | 42 | 10.0 | 19.0 | 0.00 | 0.00 | 0.00 | 74 | 1022.3 |
| 20260901095328 | 70 | 336 | 9.0 | 20.0 | 0.00 | 0.00 | 0.00 | 74 | 1022.2 |
| 20260901094832 | 71 | 360 | 11.0 | 17.0 | 0.00 | 0.00 | 0.00 | 74 | 1022.2 |
| 20260901094330 | 70 | 324 | 8.0 | 16.0 | 0.00 | 0.00 | 0.00 | 74 | 1022.2 |
| 20260901093823 | 70 | 63 | 8.0 | 18.0 | 0.00 | 0.00 | 0.00 | 74 | 1022.2 |
| 20260901093326 | 70 | 317 | 6.0 | 17.0 | 0.00 | 0.00 | 0.00 | 75 | 1022.2 |
| 20260901092821 | 70 | 42 | 9.0 | 18.0 | 0.00 | 0.00 | 0.00 | 75 | 1022.2 |
| 20260901092325 | 70 | 350 | 7.0 | 18.0 | 0.00 | 0.00 | 0.00 | 75 | 1022.2 |
| 20260901091821 | 70 | 35 | 7.0 | 16.0 | 0.00 | 0.00 | 0.00 | 76 | 1022.2 |
| 20260901091317 | 70 | 360 | 6.0 | 19.0 | 0.00 | 0.00 | 0.00 | 76 | 1022.2 |
| 20260901090821 | 70 | 360 | 11.0 | 19.0 | 0.00 | 0.00 | 0.00 | 75 | 1022.0 |
| 20260901090318 | 70 | 63 | 9.0 | 24.0 | 0.00 | 0.00 | 0.00 | 76 | 1022.1 |
| 20260901085839 | 69 | 49 | 12.0 | 24.0 | 0.00 | 0.00 | 0.00 | 76 | 1021.9 |
| 20260901085340 | 69 | 360 | 10.0 | 21.0 | 0.00 | 0.00 | 0.00 | 77 | 1022.1 |
| 20260901084817 | 69 | 360 | 9.0 | 16.0 | 0.00 | 0.00 | 0.00 | 77 | 1022.1 |
| 20260901084331 | 69 | 360 | 8.0 | 18.0 | 0.00 | 0.00 | 0.00 | 77 | 1022.0 |
| 20260901083835 | 69 | 293 | 6.0 | 17.0 | 0.00 | 0.00 | 0.00 | 77 | 1022.1 |
| 20260901083331 | 69 | 360 | 8.0 | 17.0 | 0.00 | 0.00 | 0.00 | 78 | 1022.0 |
| 20260901082837 | 68 | 355 | 7.0 | 16.0 | 0.00 | 0.00 | 0.00 | 78 | 1022.1 |
| 20260901082353 | 68 | 30 | 9.0 | 18.0 | 0.00 | 0.00 | 0.00 | 78 | 1022.2 |
| 20260901081836 | 68 | 360 | 9.0 | 19.0 | 0.00 | 0.00 | 0.00 | 78 | 1022.0 |
| 20260901081331 | 68 | 51 | 12.0 | 19.0 | 0.00 | 0.00 | 0.00 | 78 | 1022.1 |
| 20260901080827 | 68 | 39 | 6.0 | 21.0 | 0.00 | 0.00 | 0.00 | 78 | 1022.2 |
| 20260901080331 | 69 | 71 | 9.0 | 21.0 | 0.00 | 0.00 | 0.00 | 77 | 1022.0 |
| 20260901075856 | 69 | 51 | 6.0 | 18.0 | 0.00 | 0.00 | 0.00 | 77 | 1022.0 |
| 20260901075329 | 69 | 338 | 7.0 | 18.0 | 0.00 | 0.00 | 0.00 | 77 | 1022.0 |
| 20260901074827 | 69 | 360 | 7.0 | 12.0 | 0.00 | 0.00 | 0.00 | 78 | 1021.9 |
| 20260901074350 | 69 | 360 | 5.0 | 16.0 | 0.00 | 0.00 | 0.00 | 78 | 1021.9 |
| 20260901073825 | 69 | 311 | 8.0 | 16.0 | 0.00 | 0.00 | 0.00 | 78 | 1022.0 |
| 20260901073349 | 68 | 333 | 4.0 | 13.0 | 0.00 | 0.00 | 0.00 | 78 | 1022.1 |
| 20260901072824 | 68 | 360 | 5.0 | 11.0 | 0.00 | 0.00 | 0.00 | 78 | 1021.8 |
| 20260901072328 | 68 | 59 | 1.0 | 9.0 | 0.00 | 0.00 | 0.00 | 79 | 1021.8 |
| 20260901071824 | 68 | 289 | 5.0 | 10.0 | 0.00 | 0.00 | 0.00 | 79 | 1021.8 |
| 20260901071326 | 67 | 360 | 5.0 | 14.0 | 0.00 | 0.00 | 0.00 | 79 | 1021.8 |
| 20260901070823 | 67 | 344 | 8.0 | 14.0 | 0.00 | 0.00 | 0.00 | 79 | 1021.9 |
| 20260901070320 | 67 | 337 | 8.0 | 13.0 | 0.00 | 0.00 | 0.00 | 79 | 1021.8 |
| 20260901065823 | 67 | 80 | 3.0 | 10.0 | 0.00 | 0.00 | 0.00 | 80 | 1021.8 |
| 20260901065326 | 67 | 42 | 2.0 | 9.0 | 0.00 | 0.00 | 0.00 | 80 | 1021.7 |
| 20260901064822 | 67 | 355 | 4.0 | 9.0 | 0.00 | 0.00 | 0.00 | 80 | 1021.7 |
| 20260901064319 | 67 | 35 | 2.0 | 10.0 | 0.00 | 0.00 | 0.00 | 80 | 1021.6 |
| 20260901063823 | 67 | 331 | 6.0 | 12.0 | 0.00 | 0.00 | 0.00 | 80 | 1021.6 |
| 20260901063319 | 67 | 350 | 8.0 | 12.0 | 0.00 | 0.00 | 0.00 | 80 | 1021.5 |
| 20260901062815 | 67 | 44 | 1.0 | 8.0 | 0.00 | 0.00 | 0.00 | 79 | 1021.4 |
| 20260901062319 | 67 | 292 | 3.0 | 12.0 | 0.00 | 0.00 | 0.00 | 80 | 1021.6 |
| 20260901061351 | 67 | 264 | 3.0 | 11.0 | 0.00 | 0.00 | 0.00 | 80 | 1021.5 |
| 20260901060821 | 67 | 329 | 6.0 | 11.0 | 0.00 | 0.00 | 0.00 | 80 | 1021.5 |
| 20260901060316 | 67 | 310 | 3.0 | 9.0 | 0.00 | 0.00 | 0.00 | 80 | 1021.4 |
| 20260901055818 | 67 | 294 | 1.0 | 8.0 | 0.00 | 0.00 | 0.00 | 79 | 1021.3 |
| 20260901055334 | 67 | 318 | 2.0 | 14.0 | 0.00 | 0.00 | 0.00 | 79 | 1021.2 |
| 20260901054954 | 67 | 327 | 6.0 | 14.0 | 0.00 | 0.00 | 0.00 | 79 | 1021.2 |
| 20260901054856 | 67 | 327 | 6.0 | 14.0 | 0.00 | 0.00 | 0.00 | 79 | 1021.2 |
| 20260901054325 | 67 | 69 | 4.0 | 12.0 | 0.00 | 0.00 | 0.00 | 79 | 1021.2 |
| 20260901053837 | 67 | 26 | 3.0 | 10.0 | 0.00 | 0.00 | 0.00 | 79 | 1021.2 |
| 20260901053324 | 67 | 321 | 4.0 | 14.0 | 0.00 | 0.00 | 0.00 | 79 | 1021.2 |
| 20260901052823 | 67 | 338 | 8.0 | 14.0 | 0.00 | 0.00 | 0.00 | 79 | 1021.2 |
| 20260901052315 | 67 | 328 | 6.0 | 13.0 | 0.00 | 0.00 | 0.00 | 79 | 1021.2 |
| 20260901051817 | 67 | 334 | 3.0 | 11.0 | 0.00 | 0.00 | 0.00 | 79 | 1021.2 |
| 20260901051445 | 67 | 329 | 2.0 | 11.0 | 0.00 | 0.00 | 0.00 | 79 | 1021.2 |
| 20260901050826 | 66 | 329 | 4.0 | 10.0 | 0.00 | 0.00 | 0.00 | 79 | 1021.3 |
| 20260901050329 | 67 | 360 | 2.0 | 10.0 | 0.00 | 0.00 | 0.00 | 79 | 1021.4 |
| 20260901045821 | 67 | 79 | 2.0 | 12.0 | 0.00 | 0.00 | 0.00 | 79 | 1021.4 |
| 20260901045346 | 67 | 323 | 1.0 | 6.0 | 0.00 | 0.00 | 0.00 | 79 | 1021.4 |
| 20260901044822 | 67 | 321 | 3.0 | 8.0 | 0.00 | 0.00 | 0.00 | 79 | 1021.2 |
| 20260901044326 | 67 | 336 | 3.0 | 11.0 | 0.00 | 0.00 | 0.00 | 79 | 1021.4 |
| 20260901043822 | 67 | 330 | 5.0 | 11.0 | 0.00 | 0.00 | 0.00 | 79 | 1021.3 |
| 20260901043315 | 67 | 325 | 6.0 | 10.0 | 0.00 | 0.00 | 0.00 | 79 | 1021.3 |
| 20260901042816 | 67 | 55 | 2.0 | 8.0 | 0.00 | 0.00 | 0.00 | 79 | 1021.3 |
| 20260901042333 | 67 | 314 | 3.0 | 6.0 | 0.00 | 0.00 | 0.00 | 79 | 1021.2 |
| 20260901041836 | 66 | 316 | 3.0 | 8.0 | 0.00 | 0.00 | 0.00 | 79 | 1021.3 |
| 20260901041402 | 66 | 55 | 4.0 | 8.0 | 0.00 | 0.00 | 0.00 | 79 | 1021.3 |
| 20260901040823 | 66 | 318 | 2.0 | 6.0 | 0.00 | 0.00 | 0.00 | 79 | 1021.3 |
| 20260901040320 | 66 | 315 | 0.0 | 11.0 | 0.00 | 0.00 | 0.00 | 79 | 1021.5 |
| 20260901035821 | 67 | 326 | 1.0 | 11.0 | 0.00 | 0.00 | 0.00 | 79 | 1021.4 |
| 20260901035323 | 66 | 322 | 5.0 | 11.0 | 0.00 | 0.00 | 0.00 | 79 | 1021.5 |
| 20260901034837 | 66 | 334 | 4.0 | 8.0 | 0.00 | 0.00 | 0.00 | 79 | 1021.4 |
| 20260901034320 | 67 | 297 | 0.0 | 6.0 | 0.00 | 0.00 | 0.00 | 79 | 1021.4 |
| 20260901033836 | 66 | 294 | 3.0 | 6.0 | 0.00 | 0.00 | 0.00 | 79 | 1021.5 |
| 20260901033331 | 67 | 343 | 2.0 | 6.0 | 0.00 | 0.00 | 0.00 | 79 | 1021.6 |
| 20260901032825 | 66 | 330 | 3.0 | 10.0 | 0.00 | 0.00 | 0.00 | 79 | 1021.5 |
| 20260901032326 | 66 | 338 | 5.0 | 10.0 | 0.00 | 0.00 | 0.00 | 79 | 1021.6 |
| 20260901031818 | 66 | 80 | 1.0 | 2.0 | 0.00 | 0.00 | 0.00 | 79 | 1021.6 |
| 20260901031341 | 66 | 85 | 0.0 | 9.0 | 0.00 | 0.00 | 0.00 | 79 | 1021.6 |
| 20260901030821 | 66 | 28 | 1.0 | 9.0 | 0.00 | 0.00 | 0.00 | 79 | 1021.6 |
| 20260901030319 | 67 | 360 | 1.0 | 13.0 | 0.00 | 0.00 | 0.00 | 78 | 1021.6 |
| 20260901025821 | 66 | 54 | 4.0 | 13.0 | 0.00 | 0.00 | 0.00 | 79 | 1021.6 |
| 20260901025323 | 67 | 348 | 3.0 | 10.0 | 0.00 | 0.00 | 0.00 | 79 | 1021.7 |
| 20260901024836 | 66 | 355 | 2.0 | 10.0 | 0.00 | 0.00 | 0.00 | 79 | 1021.5 |
| 20260901024317 | 66 | 360 | 4.0 | 9.0 | 0.00 | 0.00 | 0.00 | 79 | 1021.6 |
| 20260901023816 | 66 | 360 | 3.0 | 8.0 | 0.00 | 0.00 | 0.00 | 79 | 1021.7 |
| 20260901023340 | 67 | 92 | 3.0 | 7.0 | 0.00 | 0.00 | 0.00 | 79 | 1021.7 |
| 20260901022831 | 67 | 42 | 2.0 | 13.0 | 0.00 | 0.00 | 0.00 | 79 | 1021.6 |
| 20260901022334 | 67 | 38 | 6.0 | 13.0 | 0.00 | 0.00 | 0.00 | 79 | 1021.6 |
| 20260901021848 | 67 | 77 | 2.0 | 8.0 | 0.00 | 0.00 | 0.00 | 79 | 1021.7 |
| 20260901021330 | 67 | 360 | 2.0 | 12.0 | 0.00 | 0.00 | 0.00 | 79 | 1021.8 |
| 20260901020846 | 67 | 331 | 5.0 | 12.0 | 0.00 | 0.00 | 0.00 | 78 | 1021.7 |
| 20260901020324 | 67 | 78 | 3.0 | 10.0 | 0.00 | 0.00 | 0.00 | 78 | 1021.7 |
| 20260901015814 | 67 | 321 | 4.0 | 17.0 | 0.00 | 0.00 | 0.00 | 78 | 1021.9 |
| 20260901015331 | 67 | 261 | 8.0 | 17.0 | 0.00 | 0.00 | 0.00 | 78 | 1021.8 |
| 20260901014827 | 67 | 63 | 4.0 | 12.0 | 0.00 | 0.00 | 0.00 | 78 | 1021.9 |
| 20260901014321 | 67 | 94 | 4.0 | 9.0 | 0.00 | 0.00 | 0.00 | 78 | 1022.1 |
| 20260901013825 | 67 | 298 | 4.0 | 10.0 | 0.00 | 0.00 | 0.00 | 78 | 1022.2 |
| 20260901013321 | 67 | 332 | 3.0 | 13.0 | 0.00 | 0.00 | 0.00 | 78 | 1022.3 |
| 20260901012845 | 67 | 323 | 5.0 | 15.0 | 0.00 | 0.00 | 0.00 | 78 | 1022.3 |
| 20260901012320 | 67 | 43 | 6.0 | 15.0 | 0.00 | 0.00 | 0.00 | 78 | 1022.4 |
| 20260901011833 | 67 | 348 | 4.0 | 10.0 | 0.00 | 0.00 | 0.00 | 78 | 1022.4 |
| 20260901011330 | 67 | 315 | 3.0 | 9.0 | 0.00 | 0.00 | 0.00 | 78 | 1022.5 |
| 20260901010826 | 67 | 340 | 4.0 | 10.0 | 0.00 | 0.00 | 0.00 | 78 | 1022.6 |
| 20260901010321 | 67 | 322 | 2.0 | 13.0 | 0.00 | 0.00 | 0.00 | 78 | 1022.6 |
| 20260901005824 | 67 | 301 | 8.0 | 13.0 | 0.00 | 0.00 | 0.00 | 78 | 1022.6 |
| 20260901005338 | 67 | 40 | 4.0 | 14.0 | 0.00 | 0.00 | 0.00 | 78 | 1022.5 |
| 20260901004822 | 67 | 51 | 6.0 | 14.0 | 0.00 | 0.00 | 0.00 | 78 | 1022.6 |
| 20260901004346 | 67 | 325 | 7.0 | 11.0 | 0.00 | 0.00 | 0.00 | 78 | 1022.5 |
| 20260901003822 | 67 | 326 | 6.0 | 11.0 | 0.00 | 0.00 | 0.00 | 78 | 1022.5 |
| 20260901003317 | 67 | 330 | 1.0 | 9.0 | 0.00 | 0.00 | 0.00 | 78 | 1022.4 |
| 20260901002820 | 67 | 323 | 4.0 | 9.0 | 0.00 | 0.00 | 0.00 | 78 | 1022.6 |
| 20260901002313 | 67 | 330 | 3.0 | 14.0 | 0.00 | 0.00 | 0.00 | 78 | 1022.7 |
| 20260901001901 | 67 | 70 | 6.0 | 14.0 | 0.00 | 0.00 | 0.00 | 78 | 1022.5 |
| 20260901001323 | 67 | 349 | 4.0 | 18.0 | 0.00 | 0.00 | 0.00 | 78 | 1022.4 |
| 20260901000823 | 67 | 51 | 6.0 | 18.0 | 0.00 | 0.00 | 0.00 | 78 | 1022.3 |
| 20260901000314 | 67 | 307 | 6.0 | 14.0 | 0.00 | 0.00 | 0.00 | 78 | 1022.5 |
| 20260831235833 | 67 | 37 | 4.0 | 14.0 | 0.00 | 0.00 | 0.00 | 78 | 1022.5 |
| 20260831235334 | 67 | 329 | 2.0 | 12.0 | 0.00 | 0.00 | 0.00 | 78 | 1022.7 |
| 20260831234823 | 67 | 345 | 4.0 | 12.0 | 0.00 | 0.00 | 0.00 | 78 | 1022.6 |
| 20260831234345 | 67 | 345 | 3.0 | 11.0 | 0.00 | 0.00 | 0.00 | 78 | 1022.7 |
| 20260831233848 | 67 | 323 | 4.0 | 11.0 | 0.00 | 0.00 | 0.00 | 78 | 1022.6 |
| 20260831233323 | 67 | 318 | 5.0 | 11.0 | 0.00 | 0.00 | 0.00 | 78 | 1022.5 |
| 20260831232821 | 67 | 43 | 5.0 | 10.0 | 0.00 | 0.00 | 0.00 | 78 | 1022.4 |
| 20260831232322 | 67 | 42 | 4.0 | 12.0 | 0.00 | 0.00 | 0.00 | 78 | 1022.3 |
| 20260831231815 | 67 | 319 | 4.0 | 12.0 | 0.00 | 0.00 | 0.00 | 78 | 1022.4 |
| 20260831231332 | 67 | 330 | 6.0 | 12.0 | 0.00 | 0.00 | 0.00 | 78 | 1022.4 |
| 20260831230835 | 67 | 355 | 2.0 | 14.0 | 0.00 | 0.00 | 0.00 | 78 | 1022.5 |
| 20260831230331 | 67 | 82 | 5.0 | 14.0 | 0.00 | 0.00 | 0.00 | 78 | 1022.4 |
| 20260831225851 | 67 | 320 | 3.0 | 12.0 | 0.00 | 0.00 | 0.00 | 78 | 1022.4 |
| 20260831225333 | 67 | 303 | 4.0 | 13.0 | 0.00 | 0.00 | 0.00 | 78 | 1022.4 |
| 20260831224830 | 67 | 321 | 4.0 | 15.0 | 0.00 | 0.00 | 0.00 | 78 | 1022.6 |
| 20260831224350 | 67 | 323 | 5.0 | 14.0 | 0.00 | 0.00 | 0.00 | 78 | 1022.6 |
| 20260831223826 | 67 | 305 | 2.0 | 10.0 | 0.00 | 0.00 | 0.00 | 78 | 1022.4 |
| 20260831223323 | 67 | 324 | 3.0 | 10.0 | 0.00 | 0.00 | 0.00 | 78 | 1022.5 |
| 20260831222827 | 67 | 35 | 3.0 | 11.0 | 0.00 | 0.00 | 0.00 | 78 | 1022.4 |
| 20260831222324 | 67 | 229 | 5.0 | 11.0 | 0.00 | 0.00 | 0.00 | 78 | 1022.3 |
| 20260831221826 | 67 | 49 | 1.0 | 10.0 | 0.00 | 0.00 | 0.00 | 78 | 1022.5 |
| 20260831221323 | 67 | 88 | 5.0 | 10.0 | 0.00 | 0.00 | 0.00 | 78 | 1022.5 |
| 20260831220826 | 67 | 292 | 0.0 | 16.0 | 0.00 | 0.00 | 0.00 | 78 | 1022.5 |
| 20260831220343 | 67 | 309 | 4.0 | 13.0 | 0.00 | 0.00 | 0.00 | 78 | 1022.5 |
| 20260831215822 | 67 | 319 | 3.0 | 10.0 | 0.00 | 0.00 | 0.00 | 78 | 1022.5 |
| 20260831215318 | 68 | 60 | 3.0 | 14.0 | 0.00 | 0.00 | 0.00 | 78 | 1022.6 |
| 20260831214820 | 68 | 114 | 6.0 | 14.0 | 0.00 | 0.00 | 0.00 | 78 | 1022.5 |
| 20260831214317 | 68 | 319 | 4.0 | 11.0 | 0.00 | 0.00 | 0.00 | 78 | 1022.5 |
| 20260831213820 | 68 | 321 | 4.0 | 15.0 | 0.00 | 0.00 | 0.00 | 78 | 1022.6 |
| 20260831213317 | 68 | 298 | 9.0 | 15.0 | 0.00 | 0.00 | 0.00 | 78 | 1022.6 |
| 20260831212813 | 68 | 275 | 3.0 | 15.0 | 0.00 | 0.00 | 0.00 | 78 | 1022.5 |
| 20260831212317 | 68 | 132 | 5.0 | 15.0 | 0.00 | 0.00 | 0.00 | 78 | 1022.6 |
| 20260831211813 | 68 | 53 | 4.0 | 15.0 | 0.00 | 0.00 | 0.00 | 78 | 1022.6 |
| 20260831211337 | 68 | 355 | 6.0 | 15.0 | 0.00 | 0.00 | 0.00 | 78 | 1022.6 |
| 20260831210840 | 68 | 323 | 6.0 | 19.0 | 0.00 | 0.00 | 0.00 | 78 | 1022.5 |
| 20260831210315 | 68 | 360 | 9.0 | 22.0 | 0.00 | 0.00 | 0.00 | 78 | 1022.3 |
| 20260831205817 | 68 | 348 | 6.0 | 22.0 | 0.00 | 0.00 | 0.00 | 78 | 1022.3 |